Ord, NE

9:25 AM CDT on June 26, 2017 (GMT -0500)
Sharp

Weather History for KODX - February, 2015

Change the Weather History Date:

Sunday, February 15, 2015

  Actual Average Record
Temperature  
Mean Temperature 20 °F 28 °F  
Max Temperature 26 °F 40 °F 66 °F (2011)
Min Temperature 14 °F 15 °F -14 °F (2007)
Degree Days  
Heating Degree Days 45 37  
Month to date heating degree days 558 578  
Since 1 July heating degree days 4531 4554  
Cooling Degree Days 0 0  
Month to date cooling degree days 0 0  
Year to date cooling degree days 0 0  
Moisture  
Dew Point 6 °F    
Average Humidity 60    
Maximum Humidity 74    
Minimum Humidity 46    
Precipitation  
Precipitation 0.00 in 0.02 in 0.70 in (1938)
Month to date precipitation 0.49 0.27  
Year to date precipitation 0.66 0.64  
Sea Level Pressure  
Sea Level Pressure 30.31 in    
Wind  
Wind Speed 7 mph (SSE)    
Max Wind Speed 15 mph    
Max Gust Speed 17 mph    
Visibility 10 miles    
Events      
T = Trace of Precipitation, MM = Missing Value Source: NWS Daily Summary

Daily Weather History Graph

Daily Weather History Graph

Search for Another Location

Airport or City:

Trip Planner

Search our weather history database for the weather conditions in past years. The results will help you decide how hot, cold, wet, or windy it might be!

Date:

Astronomy

Feb. 15, 2015 Rise Set
Actual Time 7:31 AM CST 6:09 PM CST
Civil Twilight 7:02 AM CST 6:37 PM CST
Nautical Twilight 6:30 AM CST 7:10 PM CST
Astronomical Twilight 5:58 AM CST 7:42 PM CST
Moon 4:34 AM CST (2/15) 2:42 PM CST (2/15)
Length of Visible Light 11h 34m
Length of Day
10h 37m
Waning Crescent, 15% of the Moon is Illuminated
Feb 15
Waning Crescent
Feb 18
New
Feb 25
First Quarter
Mar 5
Full
Mar 13
Last Quarter

Hourly Weather History & Observations

Time (CST) Temp. Windchill Dew Point Humidity Pressure Visibility Wind Dir Wind Speed Gust Speed Precip Events Conditions
12:53 AM 16.0 °F 5.3 °F -0.0 °F 49% 30.43 in 10.0 mi SE 8.1 mph - N/A   Overcast
1:53 AM 16.0 °F 4.4 °F -0.0 °F 49% 30.42 in 10.0 mi SE 9.2 mph - N/A   Overcast
2:53 AM 16.0 °F 2.3 °F 1.0 °F 52% 30.39 in 10.0 mi SE 12.7 mph - N/A   Overcast
3:53 AM 16.0 °F 2.9 °F 1.9 °F 54% 30.38 in 10.0 mi SE 11.5 mph - N/A   Unknown
4:53 AM 16.0 °F 4.4 °F 1.9 °F 54% 30.38 in 10.0 mi SE 9.2 mph - N/A   Overcast
5:53 AM 16.0 °F 3.6 °F 1.9 °F 54% 30.36 in 10.0 mi SE 10.4 mph - N/A   Overcast
6:48 AM 15.8 °F 5.1 °F 3.2 °F 58% 30.24 in 10.0 mi SSE 8.1 mph - N/A   Overcast
6:53 AM 15.1 °F 3.3 °F 3.9 °F 61% 30.36 in 10.0 mi SSE 9.2 mph - N/A   Mostly Cloudy
7:03 AM 15.1 °F 1.8 °F 3.0 °F 59% 30.24 in 10.0 mi SE 11.5 mph - N/A   Scattered Clouds
7:53 AM 15.1 °F 4.2 °F 3.0 °F 59% 30.37 in 10.0 mi SE 8.1 mph - N/A   Overcast
8:51 AM 15.8 °F 4.2 °F 3.2 °F 58% 30.25 in 10.0 mi SSE 9.2 mph - N/A   Overcast
8:53 AM 15.1 °F 1.8 °F 3.0 °F 59% 30.37 in 10.0 mi South 11.5 mph - N/A   Overcast
9:53 AM 16.0 °F 3.6 °F 3.9 °F 59% 30.38 in 10.0 mi South 10.4 mph - N/A   Overcast
10:53 AM 18.0 °F 7.7 °F 3.9 °F 54% 30.37 in 10.0 mi South 8.1 mph - N/A   Overcast
11:53 AM 19.0 °F 8.2 °F 3.9 °F 52% 30.35 in 10.0 mi South 9.2 mph - N/A   Overcast
12:53 PM 19.9 °F 10.1 °F 5.0 °F 52% 30.33 in 10.0 mi SSW 8.1 mph - N/A   Overcast
1:53 PM 21.9 °F 11.7 °F 6.1 °F 51% 30.30 in 10.0 mi South 9.2 mph - N/A   Overcast
2:53 PM 23.0 °F 14.7 °F 7.0 °F 50% 30.28 in 10.0 mi SW 6.9 mph - N/A   Overcast
3:53 PM 25.0 °F 19.3 °F 9.0 °F 51% 30.27 in 10.0 mi Variable 4.6 mph - N/A   Overcast
4:53 PM 25.0 °F - 9.0 °F 51% 30.25 in 10.0 mi Calm Calm - N/A   Overcast
5:21 PM 25.0 °F 19.3 °F 9.0 °F 51% 30.15 in 10.0 mi South 4.6 mph - N/A   Mostly Cloudy
5:31 PM 25.0 °F 19.3 °F 9.0 °F 51% 30.14 in 10.0 mi South 4.6 mph - N/A   Scattered Clouds
5:53 PM 25.0 °F 20.7 °F 10.0 °F 53% 30.25 in 10.0 mi South 3.5 mph - N/A   Clear
6:53 PM 24.1 °F - 10.0 °F 55% 30.26 in 10.0 mi Calm Calm - N/A   Clear
7:53 PM 19.0 °F 13.9 °F 10.9 °F 71% 30.27 in 10.0 mi South 3.5 mph - N/A   Clear
8:53 PM 19.9 °F - 10.0 °F 65% 30.29 in 10.0 mi Calm Calm - N/A   Clear
9:53 PM 17.1 °F - 10.9 °F 77% 30.28 in 10.0 mi Calm Calm - N/A   Clear
10:53 PM 19.0 °F 13.9 °F 10.0 °F 68% 30.26 in 10.0 mi SSE 3.5 mph - N/A   Scattered Clouds
11:53 PM 19.0 °F 13.9 °F 10.9 °F 71% 30.25 in 10.0 mi SE 3.5 mph - N/A   Mostly Cloudy